| time (UTC) | temp F | wind direction | speed MPH | gust MPH | rain 1hr in | rain 24hr in | rain mn in | humidity % | barometer mb |
| 20260502181520 | 67 | 276 | 11.0 | 15.0 | 0.00 | 0.00 | 0.00 | 18 | 1014.0 |
| 20260502163028 | 65 | 310 | 11.0 | 17.0 | 0.00 | 0.00 | 0.00 | 20 | 1014.8 |
| 20260502161524 | 64 | 257 | 13.0 | 20.0 | 0.00 | 0.00 | 0.00 | 19 | 1014.9 |
| 20260502151503 | 61 | 265 | 16.0 | 21.0 | 0.00 | 0.00 | 0.00 | 25 | 1015.1 |
| 20260502123021 | 39 | 182 | 3.0 | 5.0 | 0.00 | 0.00 | 0.00 | 62 | 1016.2 |
| 20260502121510 | 34 | 141 | 2.0 | 5.0 | 0.00 | 0.00 | 0.00 | 72 | 1016.3 |
| 20260502114502 | 36 | 197 | 1.0 | 4.0 | 0.00 | 0.00 | 0.00 | 67 | 1016.4 |
| 20260502113100 | 35 | 182 | 4.0 | 6.0 | 0.00 | 0.00 | 0.00 | 72 | 1016.5 |
| 20260502111604 | 34 | 105 | 2.0 | 4.0 | 0.00 | 0.00 | 0.00 | 71 | 1016.7 |
| 20260502110055 | 34 | 120 | 2.0 | 4.0 | 0.00 | 0.00 | 0.00 | 70 | 1016.8 |
| 20260502104550 | 37 | 1 | 2.0 | 7.0 | 0.00 | 0.00 | 0.00 | 67 | 1016.9 |
| 20260502103049 | 34 | 185 | 4.0 | 10.0 | 0.00 | 0.00 | 0.00 | 72 | 1016.9 |
| 20260502101529 | 35 | 185 | 6.0 | 8.0 | 0.00 | 0.00 | 0.00 | 71 | 1017.1 |
| 20260502090114 | 36 | 186 | 6.0 | 7.0 | 0.00 | 0.00 | 0.00 | 71 | 1017.6 |
| 20260502071506 | 36 | 181 | 5.0 | 6.0 | 0.00 | 0.00 | 0.00 | 72 | 1018.8 |
| 20260502070003 | 36 | 184 | 5.0 | 6.0 | 0.00 | 0.00 | 0.00 | 69 | 1018.9 |
| 20260502064558 | 37 | 189 | 4.0 | 6.0 | 0.00 | 0.00 | 0.00 | 67 | 1018.9 |
| 20260502063057 | 37 | 189 | 3.0 | 5.0 | 0.00 | 0.00 | 0.00 | 67 | 1019.1 |
| 20260502061520 | 36 | 185 | 4.0 | 6.0 | 0.00 | 0.00 | 0.00 | 69 | 1019.1 |
| 20260502060020 | 36 | 178 | 3.0 | 7.0 | 0.00 | 0.00 | 0.00 | 66 | 1019.2 |
| 20260502054510 | 36 | 191 | 2.0 | 4.0 | 0.00 | 0.00 | 0.00 | 71 | 1019.1 |
| 20260502053006 | 34 | 190 | 1.0 | 4.0 | 0.00 | 0.00 | 0.00 | 71 | 1019.1 |
| 20260502051505 | 34 | 186 | 3.0 | 5.0 | 0.00 | 0.00 | 0.00 | 75 | 1019.0 |
| 20260502050005 | 34 | 178 | 1.0 | 3.0 | 0.00 | 0.00 | 0.00 | 72 | 1019.0 |
| 20260502044505 | 34 | 46 | 0.0 | 3.0 | 0.00 | 0.00 | 0.00 | 70 | 1019.1 |
| 20260502043003 | 35 | 190 | 1.0 | 3.0 | 0.00 | 0.00 | 0.00 | 69 | 1019.1 |
| 20260502041502 | 36 | 193 | 1.0 | 3.0 | 0.00 | 0.00 | 0.00 | 68 | 1019.1 |
| 20260502040002 | 37 | 206 | 0.0 | 3.0 | 0.00 | 0.00 | 0.00 | 66 | 1018.9 |
| 20260502034531 | 39 | 240 | 0.0 | 4.0 | 0.00 | 0.00 | 0.00 | 62 | 1018.8 |
| 20260502033032 | 40 | 250 | 1.0 | 2.0 | 0.00 | 0.00 | 0.00 | 59 | 1018.7 |
| 20260502031600 | 42 | 121 | 1.0 | 4.0 | 0.00 | 0.00 | 0.00 | 56 | 1018.5 |
| 20260502030059 | 43 | 213 | 1.0 | 2.0 | 0.00 | 0.00 | 0.00 | 52 | 1018.3 |
| 20260502024555 | 47 | 46 | 1.0 | 3.0 | 0.00 | 0.00 | 0.00 | 46 | 1017.9 |
| 20260502023058 | 50 | 223 | 0.0 | 2.0 | 0.00 | 0.00 | 0.00 | 42 | 1017.7 |
| 20260502021554 | 52 | 350 | 1.0 | 3.0 | 0.00 | 0.00 | 0.00 | 40 | 1017.6 |
| 20260502020055 | 54 | 40 | 2.0 | 5.0 | 0.00 | 0.00 | 0.00 | 36 | 1017.5 |
| 20260502014550 | 56 | 81 | 3.0 | 9.0 | 0.00 | 0.00 | 0.00 | 33 | 1017.3 |
| 20260502013049 | 57 | 63 | 6.0 | 12.0 | 0.00 | 0.00 | 0.00 | 30 | 1017.2 |
| 20260502011546 | 58 | 1 | 9.0 | 17.0 | 0.00 | 0.00 | 0.00 | 25 | 1017.2 |
| 20260502010045 | 58 | 342 | 11.0 | 18.0 | 0.00 | 0.00 | 0.00 | 25 | 1017.0 |
| 20260502004544 | 59 | 354 | 13.0 | 19.0 | 0.00 | 0.00 | 0.00 | 23 | 1017.2 |
| 20260502003043 | 59 | 354 | 12.0 | 21.0 | 0.00 | 0.00 | 0.00 | 23 | 1017.0 |
| 20260502001541 | 59 | 354 | 12.0 | 21.0 | 0.00 | 0.00 | 0.00 | 24 | 1017.0 |
| 20260502000038 | 60 | 337 | 12.0 | 20.0 | 0.00 | 0.00 | 0.00 | 25 | 1017.0 |
| 20260501234537 | 60 | 338 | 11.0 | 20.0 | 0.00 | 0.00 | 0.00 | 24 | 1017.0 |
| 20260501233037 | 59 | 322 | 9.0 | 21.0 | 0.00 | 0.00 | 0.00 | 26 | 1016.8 |
| 20260501231551 | 60 | 51 | 8.0 | 23.0 | 0.00 | 0.00 | 0.00 | 25 | 1016.7 |
| 20260501230036 | 60 | 344 | 13.0 | 22.0 | 0.00 | 0.00 | 0.00 | 26 | 1016.6 |
| 20260501224530 | 60 | 345 | 9.0 | 19.0 | 0.00 | 0.00 | 0.00 | 26 | 1016.6 |
| 20260501223051 | 60 | 356 | 12.0 | 20.0 | 0.00 | 0.00 | 0.00 | 23 | 1016.7 |
| 20260501221529 | 60 | 349 | 13.0 | 19.0 | 0.00 | 0.00 | 0.00 | 24 | 1016.7 |
| 20260501220026 | 60 | 4 | 10.0 | 20.0 | 0.00 | 0.00 | 0.00 | 23 | 1016.8 |
| 20260501214528 | 60 | 312 | 7.0 | 20.0 | 0.00 | 0.00 | 0.00 | 26 | 1017.0 |
| 20260501214526 | 60 | 319 | 7.0 | 20.0 | 0.00 | 0.00 | 0.00 | 26 | 1017.0 |
| 20260501213022 | 59 | 11 | 16.0 | 26.0 | 0.00 | 0.00 | 0.00 | 26 | 1017.0 |
| 20260501211521 | 60 | 356 | 10.0 | 21.0 | 0.00 | 0.00 | 0.00 | 27 | 1017.2 |
| 20260501211518 | 60 | 349 | 10.0 | 21.0 | 0.00 | 0.00 | 0.00 | 27 | 1017.2 |
| 20260501210017 | 61 | 340 | 8.0 | 19.0 | 0.00 | 0.00 | 0.00 | 25 | 1017.2 |
| 20260501204520 | 60 | 349 | 10.0 | 22.0 | 0.00 | 0.00 | 0.00 | 27 | 1017.5 |
| 20260501203011 | 60 | 331 | 11.0 | 15.0 | 0.00 | 0.00 | 0.00 | 26 | 1017.5 |
| 20260501201509 | 60 | 325 | 14.0 | 21.0 | 0.00 | 0.00 | 0.00 | 26 | 1017.5 |
| 20260501200006 | 58 | 354 | 18.0 | 23.0 | 0.00 | 0.00 | 0.00 | 28 | 1017.7 |
| 20260501194506 | 58 | 338 | 9.0 | 17.0 | 0.00 | 0.00 | 0.00 | 29 | 1017.7 |
| 20260501193107 | 59 | 311 | 11.0 | 15.0 | 0.00 | 0.00 | 0.00 | 28 | 1018.0 |
| 20260501191602 | 59 | 310 | 12.0 | 19.0 | 0.00 | 0.00 | 0.00 | 29 | 1018.1 |
| 20260501190056 | 58 | 300 | 14.0 | 24.0 | 0.00 | 0.00 | 0.00 | 27 | 1018.1 |
| 20260501184555 | 58 | 344 | 11.0 | 17.0 | 0.00 | 0.00 | 0.00 | 31 | 1018.3 |
| 20260501183054 | 57 | 3 | 9.0 | 19.0 | 0.00 | 0.00 | 0.00 | 29 | 1018.5 |